Location: Aciu?a
(46.2833°N, 22.4500°E)
Time: 12:43:12
(UTC+00:00)

USA 215 - Pass Details

Date: 25 October 2021
Orbit: 1099 x 1109 km, 123.0° (Epoch: 20 November)

Event Time Altitude Azimuth Distance (km) Brightness Sun altitude
Exits shadow 18:24:09 32° 20° (NNE) 1,791 4.3 -31.1°
Maximum altitude 18:25:47 37° 351° (N) 1,654 4.3 -31.4°
Drops below altitude 10° 18:31:38 10° 287° (WNW) 2,964 6.4 -32.4°
Sets 18:34:18 0° 280° (W) 3,923 7.2 -32.8°
